Weather reports worldwide

Advertisment
Coningsby, United Kingdom (3391): temperature & dewpoint: 16.06.2018 06:00:00 - 22.06.2018 06:00:00 (BST)Coningsby, United Kingdom (3391): temperature -20cm & temperature -100cm: 16.06.2018 06:00:00 - 22.06.2018 06:00:00 (BST)Coningsby, United Kingdom (3391): wind speed & gusts: 16.06.2018 06:00:00 - 22.06.2018 06:00:00 (BST)Coningsby, United Kingdom (3391): wind direction: 16.06.2018 06:00:00 - 22.06.2018 06:00:00 (BST)Coningsby, United Kingdom (3391): reduced air pressure: 16.06.2018 06:00:00 - 22.06.2018 06:00:00 (BST)Coningsby, United Kingdom (3391): visibility: 16.06.2018 06:00:00 - 22.06.2018 06:00:00 (BST)Coningsby, United Kingdom (3391): precipitation: 16.06.2018 06:00:00 - 22.06.2018 06:00:00 (BST)
Date & Time tt [°C] td [°C] tt -20cm [°C] tt -100cm [°C] ff [km/h] ff [kn] fx [km/h] fx [kn] dd ppp [hPa] vv [km] rr [mm]
22.06.2018 06:00:00 9,8 7,0 - - 16 9 - - NW 1029,7 10 0,0
22.06.2018 05:00:00 9,2 7,0 - - 13 7 - - NW 1029,3 10 0,0
22.06.2018 04:00:00 9,9 7,2 - - 16 9 - - NW 1029,2 10 0,0
22.06.2018 03:00:00 10,4 7,1 - - 13 7 - - WNW 1028,9 10 0,0
22.06.2018 02:00:00 10,9 6,9 - - 15 8 - - WNW 1028,7 10 0,0
22.06.2018 01:00:00 11,7 6,6 - - 13 7 - - WNW 1028,6 10 0,0
22.06.2018 00:00:00 13,0 6,8 - - 9 5 - - WNW 1028,6 10 0,0
21.06.2018 23:00:00 12,5 7,3 - - 4 2 - - SSW 1028,8 10 0,0
21.06.2018 22:00:00 13,1 7,4 - - 8 4 - - SSE 1028,5 10 0,0
21.06.2018 21:00:00 13,1 7,1 - - 9 5 - - SE 1028,0 10 0,0
21.06.2018 20:00:00 15,0 6,0 - - 15 8 - - SSE 1027,5 10 0,0
21.06.2018 19:00:00 17,0 5,8 - - 21 11 - - SE 1027,2 10 0,0
21.06.2018 18:00:00 18,6 2,4 - - 21 11 - - NW 1027,0 10 0,0
21.06.2018 17:00:00 18,8 2,1 - - 24 13 - - NW 1026,7 10 0,0
21.06.2018 16:00:00 17,1 1,3 - - 24 13 - - NW 1026,3 10 0,0
21.06.2018 15:00:00 17,2 1,4 - - 22 12 - - NNW 1026,2 10 0,0
21.06.2018 14:00:00 16,4 2,1 - - 26 14 - - NNW 1025,9 10 0,0
21.06.2018 13:00:00 16,2 2,4 - - 28 15 - - NW 1025,6 10 0,0
21.06.2018 12:00:00 15,8 2,3 - - 28 15 - - NNW 1025,2 10 0,0
21.06.2018 11:00:00 14,0 3,0 - - 29 16 48 26 NNW 1024,6 10 0,0
21.06.2018 10:00:00 13,2 3,3 14,2 14,7 31 17 50 27 NNW 1023,7 10 0,0
21.06.2018 09:00:00 12,6 3,4 - - 31 17 50 27 NNW 1022,9 10 0,0
21.06.2018 08:00:00 12,1 4,1 - - 34 18 50 27 NW 1022,4 10 0,0
21.06.2018 07:00:00 11,4 4,6 - - 28 15 - - NW 1021,8 10 0,0
21.06.2018 06:00:00 10,5 5,1 - - 22 12 - - WNW 1021,2 40 0,0
21.06.2018 05:00:00 10,9 5,5 - - 16 9 - - WNW 1020,7 10 0,0
21.06.2018 04:00:00 10,0 6,0 - - 13 7 - - W 1020,5 10 0,0
21.06.2018 03:00:00 11,3 5,4 - - 18 10 - - WNW 1020,4 10 0,0
21.06.2018 02:00:00 12,3 4,3 - - 24 13 - - WNW 1020,0 10 0,0
21.06.2018 01:00:00 13,1 4,4 - - 21 11 - - WNW 1019,7 10 0,0
21.06.2018 00:00:00 13,8 5,1 - - 18 10 - - WNW 1019,5 10 0,0
20.06.2018 23:00:00 14,3 6,6 - - 16 9 - - WNW 1019,3 10 0,0
20.06.2018 22:00:00 15,5 7,9 - - 16 9 - - WNW 1019,2 10 0,0
20.06.2018 21:00:00 17,0 9,1 - - 21 11 - - W 1018,3 10 0,0
20.06.2018 20:00:00 18,3 9,3 - - 22 12 - - NW 1018,0 10 0,0
20.06.2018 19:00:00 19,6 11,2 - - 26 14 - - WNW 1017,5 10 0,0
20.06.2018 18:00:00 20,0 12,2 - - 28 15 - - WNW 1017,2 10 0,0
20.06.2018 17:00:00 21,4 13,9 - - 29 16 48 26 NW 1016,9 10 0,0
20.06.2018 16:00:00 23,3 12,8 - - 37 20 55 30 W 1016,4 10 0,0
20.06.2018 15:00:00 24,5 14,4 - - 34 18 48 26 W 1016,3 10 0,0
20.06.2018 14:00:00 23,0 14,3 - - 31 17 46 25 WSW 1016,2 10 0,0
20.06.2018 13:00:00 21,5 15,4 - - 29 16 50 27 WSW 1016,7 10 0,0
20.06.2018 12:00:00 21,8 15,1 - - 29 16 50 27 WSW 1016,6 10 0,0
20.06.2018 11:00:00 21,4 14,5 - - 29 16 - - SW 1016,6 10 0,0
20.06.2018 10:00:00 21,5 14,9 14,2 14,7 34 18 50 27 SW 1016,7 10 0,0
20.06.2018 09:00:00 19,9 14,6 - - 28 15 - - SW 1016,9 35 0,0
20.06.2018 08:00:00 18,8 14,4 - - 26 14 - - SSW 1017,0 10 0,0
20.06.2018 07:00:00 16,9 14,5 - - 22 12 - - SSW 1017,2 10 0,0
20.06.2018 06:00:00 15,4 13,9 - - 16 9 - - SSW 1017,6 10 0,0
20.06.2018 05:00:00 15,8 14,5 - - 21 11 - - SSW 1017,8 10 0,0
20.06.2018 04:00:00 16,2 15,0 - - 15 8 - - SSW 1018,0 10 0,0
20.06.2018 03:00:00 16,0 15,1 - - 21 11 - - SSW 1018,4 10 0,0
20.06.2018 02:00:00 15,8 14,8 - - 15 8 - - SSW 1018,7 25 0,0
20.06.2018 01:00:00 16,4 15,1 - - 15 8 - - SSW 1019,2 10 0,0
20.06.2018 00:00:00 16,3 15,2 - - 9 5 - - S 1019,5 10 0,0
19.06.2018 23:00:00 18,2 15,5 - - 15 8 - - SSW 1019,7 10 0,0
19.06.2018 22:00:00 19,1 16,0 - - 13 7 - - SSW 1019,5 10 0,0
19.06.2018 21:00:00 21,0 16,3 - - 13 7 - - SW 1019,3 10 0,0
19.06.2018 20:00:00 22,5 16,1 - - 22 12 - - WSW 1019,3 10 0,0
19.06.2018 19:00:00 22,8 16,6 - - 16 9 - - SW 1019,5 10 0,0
19.06.2018 18:00:00 22,8 16,0 - - 18 10 - - SW 1019,6 10 0,0
19.06.2018 17:00:00 22,4 15,4 - - 22 12 - - SW 1019,8 40 0,0
19.06.2018 16:00:00 22,4 15,5 - - 21 11 - - SW 1020,1 10 0,0
19.06.2018 15:00:00 21,8 15,2 - - 15 8 - - SW 1020,5 10 0,0
19.06.2018 14:00:00 21,5 13,9 - - 15 8 - - SW 1020,7 10 0,0
19.06.2018 13:00:00 20,4 13,3 - - 21 11 - - SW 1021,3 35 0,0
19.06.2018 12:00:00 19,9 12,3 - - 21 11 - - WSW 1021,6 10 0,0
19.06.2018 11:00:00 19,5 12,8 - - 21 11 - - WSW 1021,6 10 0,0
19.06.2018 10:00:00 18,2 12,1 14,0 14,5 16 9 - - W 1021,8 10 0,0
19.06.2018 09:00:00 17,5 11,5 - - 15 8 - - W 1021,8 40 0,0
19.06.2018 08:00:00 16,4 11,9 - - 13 7 - - W 1021,4 10 0,0
19.06.2018 07:00:00 16,3 12,2 - - 13 7 - - WNW 1020,8 10 0,0
19.06.2018 06:00:00 16,2 13,0 - - 11 6 - - W 1020,2 10 0,0
19.06.2018 05:00:00 16,9 13,9 - - 11 6 - - WNW 1019,6 10 0,0
19.06.2018 04:00:00 17,0 14,2 - - 13 7 - - W 1018,8 40 0,0
19.06.2018 03:00:00 17,9 14,4 - - 22 12 - - W 1018,4 40 0,0
19.06.2018 02:00:00 18,2 15,0 - - 24 13 - - WSW 1017,8 30 0,0
19.06.2018 01:00:00 18,7 14,8 - - 18 10 - - WSW 1017,2 40 0,0
19.06.2018 00:00:00 18,4 15,2 - - 21 11 - - WSW 1017,0 10 0,0
18.06.2018 23:00:00 18,9 15,3 - - 21 11 - - SW 1017,0 10 0,0
18.06.2018 22:00:00 19,3 14,8 - - 16 9 - - SW 1016,6 10 0,0
18.06.2018 21:00:00 19,9 14,3 - - 15 8 - - SW 1016,1 10 0,0
18.06.2018 20:00:00 20,6 13,5 - - 22 12 - - WSW 1016,1 10 0,0
18.06.2018 19:00:00 21,5 12,8 - - 22 12 46 25 WSW 1015,8 10 0,0
18.06.2018 18:00:00 21,9 12,0 - - 34 18 46 25 W 1015,8 10 0,0
18.06.2018 17:00:00 21,9 11,4 - - 31 17 52 28 W 1015,9 10 0,0
18.06.2018 16:00:00 22,9 10,4 - - 29 16 50 27 W 1015,7 10 0,0
18.06.2018 15:00:00 22,3 9,5 - - 35 19 50 27 W 1016,2 45 0,0
18.06.2018 14:00:00 22,5 8,5 - - 31 17 46 25 WSW 1016,0 10 0,0
18.06.2018 13:00:00 20,5 10,3 - - 26 14 - - WSW 1016,2 10 0,0
18.06.2018 12:00:00 20,1 10,1 - - 29 16 - - WSW 1016,1 10 0,0
18.06.2018 11:00:00 19,3 10,5 - - 21 11 - - W 1016,1 40 0,0
18.06.2018 10:00:00 18,5 11,9 13,7 14,5 24 13 - - W 1016,2 10 0,0
18.06.2018 09:00:00 16,9 12,5 - - 22 12 - - WSW 1015,8 10 0,0
18.06.2018 08:00:00 16,2 12,8 - - 18 10 - - WSW 1015,4 35 0,0
18.06.2018 07:00:00 16,3 13,4 - - 18 10 - - SW 1014,9 10 0,0
18.06.2018 06:00:00 15,6 13,5 - - 16 9 - - SW 1014,5 10 0,0
18.06.2018 05:00:00 15,0 13,6 - - 15 8 - - SW 1014,0 10 0,0
18.06.2018 04:00:00 14,7 13,3 - - 18 10 - - WSW 1013,9 10 0,0
18.06.2018 03:00:00 14,9 13,6 - - 11 6 - - SW 1013,9 10 0,0
18.06.2018 02:00:00 15,0 13,9 - - 18 10 - - SSW 1014,1 10 0,0
18.06.2018 01:00:00 14,8 13,7 - - 16 9 - - SSW 1013,8 10 0,0
18.06.2018 00:00:00 15,0 13,6 - - 18 10 - - SSW 1013,6 10 0,0
17.06.2018 23:00:00 15,3 13,7 - - 16 9 - - SSW 1014,0 10 0,0
17.06.2018 22:00:00 15,8 13,5 - - 21 11 - - SSW 1014,0 10 0,0
17.06.2018 21:00:00 15,8 13,2 - - 21 11 - - SSW 1013,7 10 0,0
17.06.2018 20:00:00 15,2 13,5 - - 18 10 - - SSW 1013,9 10 0,0
17.06.2018 19:00:00 17,1 12,0 - - 18 10 - - SSW 1013,7 10 0,0
17.06.2018 18:00:00 17,1 12,4 - - 16 9 - - SSW 1013,7 10 0,0
17.06.2018 17:00:00 17,2 11,3 - - 22 12 - - SSW 1014,0 10 0,0
17.06.2018 16:00:00 18,1 9,8 - - 28 15 - - SW 1014,1 10 0,0
17.06.2018 15:00:00 18,7 9,1 - - 22 12 - - WSW 1013,8 10 0,0
17.06.2018 14:00:00 18,0 8,8 - - 21 11 - - SW 1013,9 10 0,0
17.06.2018 13:00:00 17,8 9,6 - - 21 11 - - WSW 1013,9 10 0,0
17.06.2018 12:00:00 17,0 9,5 - - 21 11 - - WSW 1014,1 10 0,0
17.06.2018 11:00:00 16,8 10,3 - - 26 14 - - WSW 1013,8 10 0,0
17.06.2018 10:00:00 16,0 9,9 13,7 14,5 24 13 - - WSW 1013,8 10 0,0
17.06.2018 09:00:00 15,4 10,8 - - 24 13 - - WSW 1014,0 10 0,0
17.06.2018 08:00:00 13,8 11,3 - - 18 10 - - WSW 1013,6 10 0,0
17.06.2018 07:00:00 12,9 11,0 - - 15 8 - - SW 1013,1 10 0,0
17.06.2018 06:00:00 11,6 10,5 - - 15 8 - - SW 1012,7 10 0,0
17.06.2018 05:00:00 11,4 9,9 - - 13 7 - - SW 1012,5 10 0,0
17.06.2018 04:00:00 11,2 9,6 - - 13 7 - - SW 1012,3 10 0,0
17.06.2018 03:00:00 11,9 9,6 - - 15 8 - - WSW 1012,2 10 0,0
17.06.2018 02:00:00 11,1 9,1 - - 13 7 - - WSW 1012,1 10 0,0
17.06.2018 01:00:00 11,5 9,4 - - 11 6 - - WSW 1011,8 10 0,0
17.06.2018 00:00:00 12,1 10,1 - - 15 8 - - WSW 1011,6 10 0,0
16.06.2018 23:00:00 13,1 11,2 - - 11 6 - - SSW 1011,4 10 0,0
16.06.2018 22:00:00 13,5 12,0 - - 4 2 - - SSW 1010,9 10 0,0
16.06.2018 21:00:00 15,0 10,8 - - 13 7 - - WNW 1010,6 10 1,0
16.06.2018 20:00:00 16,7 13,5 - - 24 13 - - SW 1009,8 10 0,2
16.06.2018 19:00:00 18,7 12,1 - - 29 16 46 25 SW 1009,2 10 0,0
16.06.2018 18:00:00 19,1 11,7 - - 31 17 - - SSW 1009,6 40 0,0
16.06.2018 17:00:00 19,0 10,9 - - 29 16 - - SW 1010,2 10 0,0
16.06.2018 16:00:00 19,3 10,5 - - 28 15 - - SSW 1010,5 10 0,0
16.06.2018 15:00:00 20,3 10,5 - - 21 11 - - SSW 1010,9 10 0,0
16.06.2018 14:00:00 17,6 9,3 - - 24 13 - - SW 1011,5 10 0,0
16.06.2018 13:00:00 17,5 9,3 - - 26 14 - - SSW 1011,9 10 0,0
16.06.2018 12:00:00 16,0 9,2 - - 15 8 - - SW 1012,5 10 0,0
16.06.2018 11:00:00 16,1 10,2 - - 21 11 - - SSW 1012,8 10 0,0
16.06.2018 10:00:00 14,8 11,4 13,7 14,5 9 5 - - SW 1013,1 10 0,0
16.06.2018 09:00:00 13,1 10,5 - - 11 6 - - WSW 1013,4 10 0,2
16.06.2018 08:00:00 13,0 10,6 - - 9 5 - - WSW 1013,5 10 0,0
16.06.2018 07:00:00 12,9 9,7 - - 9 5 - - SW 1013,3 10 0,0
16.06.2018 06:00:00 12,2 9,8 - - 5 3 - - SW 1013,3 30 0,0

tt = temperature
td = dewpoint
tt -20cm = temperature -20cm
tt -100cm = temperature -100cm
ff = wind speed
fx = gusts
dd = wind direction
ppp = reduced air pressure
vv = visibility
rr = precipitation

Next stations